OPS 4682 DEB, 58026

Orbit data source: Space-Track

OPS 4682 DEB, 58026 is space debris in LEO originally from a launch on Sat, 03 Apr 1965 UTC launched from the Air Force Western Test Range (AFWTR). Debris objects in space refer to the collection of defunct objects orbiting the Earth. Examples of debris include non-operational satellites, rocket bodies, and fragments generated from explosions, collisions, or faulty payload assembly.

Loading next visibility...
Identifier
58026, 1965-027HP
Orbit
LEO
Country
Flag of USUS
Related business
Manufacturer
Unknown
Mission
Spacecraft
Bus & Motor
Unknown
Mass
Unknown
Launch date (UTC)
1965-04-03 (61 years ago)
Launch vehicle
Unknown
Launch site
Air Force Western Test Range (AFWTR)
Object type
Payload
Rocket body
Debris
Shape & HBR
Unknown shape, 1.1 m
Radar Cross Section
Medium (>0.1 m² and <1 m²)

Expand to show TLE details & history
Last TLE update: 6 days ago

TLE from 6 days ago
0 OPS 4682 DEB
1 58026U 65027HP  26214.19111298  .00000349  00000-0  11990-2 0  9996
2 58026  90.2369   8.2168 0042268  51.0828 309.4049 12.95898804507165
Epoch: 2026-08-02T04:35Z
TLE epoch observation values (Epoch: 2026-08-02T04:35:12.161Z)
Latitude
0.00004°
Longitude
-11.37599°
Altitude
1,260.61 km
Speed
7.235 km/s
True Right ascension
00h 32m 52s
True Declination
0° 00' 00"
Sunlit
Object was in daylight at epoch
Visualization orbit readout
Latitude
Unknown
Longitude
Unknown
Altitude
Unknown
Speed
Unknown
Apparent Right ascension
Unknown
Apparent Declination
Unknown
Sunlit
N/A
Visualization observer readout
Local Sidereal Time
20:31:54
Azimuth
Unknown
Elevation
Unknown
Doppler factor
Unknown
Orbital elements
Apogee altitude
1,307.68 km
Perigee altitude
1,242.981 km
Semi-major axis
7,653.468 km
Eccentricity
0.00423
Inclination
90.2369°
RAAN
8.2168°
Arg. of periapsis
51.0828°
True anomaly
309.02939°
Mean anomaly
309.4049°
Eccentric anomaly
309.21727°
Mean motion
3.24157 °/min
Orbital period
111.06 mins
BSTAR
0.001199
Loading maneuver chart data...
Computing Atmospheric mass density...
Loading historical data...
Loading historical data...
Loading historical data...
Loading historical data...
Loading historical data...
Loading historical data...
Loading historical data...

Documentation

Showing up to 5 results
|